Tracking 27111 objects as of 29-Mar-2023
HD Live streaming from Space Station
objects crossing your sky now

FLOCK 4Y 7

Track FLOCK 4Y 7 now!
10-day predictions
FLOCK 4Y 7 is classified as:


NORAD ID: 55032
Int'l Code: 2023-001Z
Perigee: 517.0 km
Apogee: 532.2 km
Inclination: 97.5 °
Period: 95.0 minutes
Semi major axis: 6895 km
RCS: Unknown
Launch date: January 3, 2023
Source: United States (US)
Launch site: AIR FORCE EASTERN TEST RANGE (AFETR)
Your satellite tracking list
Your tracking list is empty




NASA's NSSDC Master Catalog

Two Line Element Set (TLE):
1 55032U 23001Z   23087.40496907  .00010616  00000-0  55241-3 0  9994
2 55032  97.4861 148.2093 0011036 278.8872  81.1112 15.16166809 12833
Source of the keplerian elements: AFSPC